Regional Weather Roundup
Issued by NWS

Home | Current Version | Previous Version | Text Only | Print | Product List | Glossary On
Versions: 1 2 3 4 5 6 7 8 9 10 11 12 13 14 15 16 17 18 19 20 21 22 23 24 25 26 27 28 29 30 31 32 33 34 35 36 37 38 39 40 41 42 43 44 45 46 47 48 49 50
000
ASUS43 KMPX 301101
RWRMN
WEATHER ROUNDUP FOR MINNESOTA
NATIONAL WEATHER SERVICE TWIN CITIES/CHANHASSEN MN
500 AM CST FRI JAN 30 2015


NOTE: "FAIR" INDICATES FEW OR NO CLOUDS BELOW 12,000 FEET WITH NO
SIGNIFICANT WEATHER AND/OR OBSTRUCTIONS TO VISIBILITY. N/A MEANS
CURRENT SKY AND/OR WEATHER CONDITIONS ARE NOT AVAILABLE.

MNZ060>063-068>070-301200-
   Twin Cities Metro

CITY           SKY/WX    TMP DP  RH WIND       PRES   REMARKS
TWIN CITIES    CLOUDY    12   4  70 NE6       30.53F WCI   3
ST PAUL        PTCLDY    11   3  70 N5        30.56S WCI   3
CRYSTAL        PTCLDY    13   6  74 E3        30.52F
BLAINE         PTCLDY    10   7  85 CALM      30.52S
LAKEVILLE      CLEAR     10   7  85 CALM      30.51F
EDEN PRAIRIE   PTCLDY    12   6  77 CALM      30.52F
SOUTH ST PAUL  PTCLDY    13   4  69 CALM      30.54F
LAKE ELMO      FAIR       9   5  85 CALM      30.53F
$$
MNZ001>005-007-008-013>017-022>024-027-028-301200-
   Northwest Minnesota

CITY           SKY/WX    TMP DP  RH WIND       PRES   REMARKS
BEMIDJI        PTCLDY     0  -4  86 S3        30.43F
HALLOCK        MOCLDY     7   1  78 S14       30.44F WCI -10
ROSEAU         MOCLDY     1  -4  78 S7        30.45F WCI -11
WARROAD        PTCLDY     0  -6  78 S5        30.44F WCI -10
THIEF RVR FALL CLOUDY     3   0  85 S8        30.45F WCI -10
CROOKSTON      CLOUDY     7   1  78 S7        30.48F WCI  -5
FOSSTON        CLOUDY     1  -2  85 S6        30.45S WCI -10
DETROIT LAKES  MOCLDY     7   3  85 S7        30.44F WCI  -5
MOORHEAD       MOCLDY    10   7  85 S7        30.48F WCI   0
PARK RAPIDS    CLOUDY     4   0  83 S7        30.44S WCI  -8
MAHNOMEN       FAIR       5   0  80 S6        30.44F WCI  -6
$$
MNZ006-009>011-018-025>026-301200-
   North Central Minnesota

CITY           SKY/WX    TMP DP  RH WIND       PRES   REMARKS
BAUDETTE       CLOUDY    -3  -7  82 CALM      30.44F
FLAG ISLAND    CLOUDY    -2  -6  84 S5        30.44F WCI -12
INTL FALLS     MOCLDY    -9 -14  78 CALM      30.45F
WASKISH        CLOUDY    -2  -6  84 CALM      30.45F
BIG FORK       MOCLDY    -8 -13  77 CALM      30.45F
LONGVILLE      CLOUDY     0  -2  92 CALM      30.47S
GRAND RAPIDS   PTCLDY     0  -6  78 CALM      30.44S
CRANE LAKE     MOCLDY    -9 -13  84 CALM      30.49S
ORR            MOCLDY    -8 -15  71 CALM      30.42F
COOK           MOCLDY    -8 -11  84 CALM      30.45S
WALKER         PTSUNNY    0  -4  85 CALM      30.46S
$$
MNZ012-019>021-037-301200-
   Northeast Minnesota

CITY           SKY/WX    TMP DP  RH WIND       PRES   REMARKS
DULUTH         PTCLDY    -1  -6  79 N5        30.42F WCI -11
ELY            MOCLDY     0  -4  85 W2        30.43F
HIBBING        PTCLDY    -7 -13  75 CALM      30.44F
EVELETH        PTCLDY    -8 -13  77 CALM      30.45F
DULUTH HARBOR  PTCLDY     3  -2  78 CALM      30.53S
TWO HARBORS    PTCLDY    -2  -8  78 CALM      30.44F
SILVER BAY     PTCLDY     0  -4  85 CALM      30.44F
GRAND MARAIS     N/A     -5  -9  83 NW3       30.50F
G MARAIS ARPRT PTCLDY    -2  -9  71 W7        30.35F WCI -16
$$
MNZ029>031-032-039>041-046>048-054>057-064-301200-
   West Central Minnesota

CITY           SKY/WX    TMP DP  RH WIND       PRES   REMARKS
FERGUS FALLS   MOCLDY     9   1  72 SE3       30.51F
WHEATON        CLEAR      9   5  85 SE5       30.50F WCI   0
MORRIS         FAIR       9   3  78 S5        30.47F WCI   0
ALEXANDRIA     PTCLDY     8   2  76 SE3       30.45F
ELBOW LAKE     FAIR       9   4  80 SE3       30.47S
WADENA         MOCLDY     3   1  92 CALM      30.47R FOG
GLENWOOD       PTCLDY     9   3  78 SE3       30.47F
APPLETON       CLEAR     10   7  85 S3        30.49F
BENSON         CLEAR      7   3  85 CALM      30.48F
ORTONVILLE     CLOUDY    10   7  85 SE6       30.47F WCI   1
MADISON        MOCLDY    18  12  79 SE3       30.50F
WILLMAR        FAIR      10   5  79 CALM      30.50F
$$
MNZ033>034-036-042>043-049>051-058-059-301200-
   Central Minnesota

CITY           SKY/WX    TMP DP  RH WIND       PRES   REMARKS
ST CLOUD       MOCLDY     9   4  80 CALM      30.50F
SAUK CENTRE    FAIR       7   3  84 CALM      30.47F
PAYNESVILLE    PTCLDY     7   3  85 CALM      30.49F
AITKIN         PTCLDY     5   0  78 CALM      30.47R
PINE RIVER     MOCLDY     3   0  85 CALM      30.49F
BRAINERD       PTCLDY     5   0  79 N3        30.49S
STAPLES        MOCLDY     5   1  85 CALM      30.48R
LONG PRAIRIE   FAIR       7   3  85 CALM      30.47F
LITTLE FALLS   MOCLDY     9   3  78 CALM      30.49F
LITCHFIELD     PTCLDY    10   9  92 CALM      30.51S
BUFFALO        MOCLDY    11   6  79 CALM      30.53S
MAPLE LAKE     MOCLDY    12   8  84 CALM      30.52S
$$
MNZ037-044-045-052-053-301200-
   East Central Minnesota

CITY           SKY/WX    TMP DP  RH WIND       PRES   REMARKS
PRINCETON      PTCLDY     9   5  85 CALM      30.51S
MORA           PTCLDY     7   1  78 E3        30.51F
CAMBRIDGE      PTCLDY     9   1  72 CALM      30.50F
RUSH CITY      PTCLDY     7   2  80 CALM      30.52F
MOOSE LAKE     CLOUDY     3   0  85 CALM      30.48S
HINCKLEY       FAIR       7   1  78 CALM      30.50F
CLOQUET        MOCLDY     0  -6  78 W5        30.45S WCI -10
MCGREGOR       PTCLDY     5   1  85 CALM      30.48R
$$
MNZ071>073-080-081-089-090-097-098-301200-
   Southwest Minnesota

CITY           SKY/WX    TMP DP  RH WIND       PRES   REMARKS
MONTEVIDEO     CLEAR      9   7  92 CALM      30.51F
GRANITE FALLS  CLEAR     10   8  88 CALM      30.52F
CANBY          CLOUDY    16  13  90 S5        30.49F WCI   9
MARSHALL       CLOUDY    16  10  79 CALM      30.51S
REDWOOD FALLS  CLEAR     12   7  80 CALM      30.51F
OLIVIA         CLEAR     10   9  92 CALM      30.50F
PIPESTONE      CLOUDY    18  16  93 SW7       30.46S WCI   8
WINDOM         CLEAR     12  10  92 CALM      30.49F
WORTHINGTON    CLOUDY    14  10  85 E3        30.49S
JACKSON        CLEAR     14  10  85 E3        30.49S
TRACY          CLOUDY    15  11  86 CALM      30.49F
SLAYTON        CLOUDY    16  13  87 CALM      30.47S
$$
MNZ065>067-074>077-082>085-091>093-301200-
   South Central Minnesota

CITY           SKY/WX    TMP DP  RH WIND       PRES   REMARKS
MANKATO        CLEAR     12   7  79 CALM      30.52S
NEW ULM        CLEAR     10   7  85 CALM      30.53S
ST JAMES       CLEAR     12   9  85 CALM      30.53F
FAIRMONT       CLEAR     12   7  79 CALM      30.50S
GLENCOE        PTCLDY    12   9  89 CALM      30.51F
FARIBAULT      CLEAR     10   7  85 CALM      30.51F
OWATONNA       CLEAR     10   7  85 CALM      30.51S
WASECA         CLEAR     12  10  92 CALM      30.53S
ALBERT LEA     CLEAR     12  10  92 CALM      30.50S
$$
MNZ078>079-086>088-094>096-301200-
   Southeast Minnesota

CITY           SKY/WX    TMP DP  RH WIND       PRES   REMARKS
ROCHESTER      PTCLDY     9   3  77 N5        30.49S WCI   1
RED WING       PTCLDY     7   1  78 CALM      30.53F
STANTON        CLEAR     12   9  85 CALM      30.51F
DODGE CENTER   PTCLDY     9   7  92 CALM      30.49S
WINONA         CLEAR     12   5  73 CALM      30.55S
AUSTIN         CLEAR     12   7  79 CALM      30.50S
PRESTON        CLEAR      8   4  82 N5        30.50R WCI   0
$$
ABBREVIATIONS USED IN REMARKS
   TC - TEMPERATURES IN CELSIUS
  WCI - WIND CHILL INDEX
   HX - HEAT INDEX
  VSB - VISIBILITY
$$



USA.gov is the U.S. government's official web portal to all federal, state and local government web resources and services.